Tracking 20721 objects as of 2-Jun-2020
HD Live streaming from Space Station
objects crossing your sky now

COSMOS 1431

Track COSMOS 1431 now!
10-day predictions
COSMOS 1431 is classified as:


NORAD ID: 13763
Int'l Code: 1983-002C
Perigee: 1,472.1 km
Apogee: 1,490.3 km
Inclination: 74.0 °
Period: 115.4 minutes
Semi major axis: 7852 km
RCS: 0.6684 m2 (medium)
Launch date: January 19, 1983
Source: Commonwealth of Independent States (former USSR) (CIS)
Launch site: PLESETSK MISSILE AND SPACE COMPLEX (PKMTR)
aabbcc
Your satellite tracking list
Your tracking list is empty




NASA's NSSDC Master Catalog

Two Line Element Set (TLE):
1 13763U 83002C   20152.10706213 -.00000007  00000-0  59251-4 0  9997
2 13763  74.0236 101.2358 0011616 338.4200  32.8991 12.47710357702052
Source of the keplerian elements: AFSPC